This is the latest recevied weather packets stored in our database for station/object EA1HTW-13. If no packets are shown the sender has not sent any weather packets the latest 10 day(s).
| Time | Temp. | Humidity | Pressure | Rain* | Wind** | Luminosity | Snow |
|---|---|---|---|---|---|---|---|
| 1777539742 | 16.67° C | 71% | 1008.9 hPa | 0 mm | - | - | - |
| 1777539203 | 17.22° C | 71% | 1009 hPa | 0 mm | - | - | - |
| 1777538663 | 17.22° C | 71% | 1008.9 hPa | 0 mm | - | - | - |
| 1777538122 | 17.22° C | 71% | 1008.7 hPa | 0 mm | - | - | - |
| 1777537583 | 16.67° C | 71% | 1008.7 hPa | 0 mm | - | - | - |
| 1777537042 | 16.67° C | 71% | 1008.5 hPa | 0 mm | - | - | - |
| 1777536502 | 16.67° C | 72% | 1008.6 hPa | 0 mm | - | - | - |
| 1777535963 | 16.67° C | 74% | 1008.4 hPa | 0 mm | - | - | - |
| 1777535422 | 16.11° C | 74% | 1008.4 hPa | 0 mm | - | - | - |
| 1777534882 | 16.11° C | 74% | 1008.3 hPa | 0 mm | - | - | - |
| 1777534343 | 15.56° C | 74% | 1008.4 hPa | 0 mm | - | - | - |
| 1777533803 | 15.56° C | 75% | 1008.2 hPa | 0 mm | - | - | - |
| 1777533263 | 15.56° C | 75% | 1008.3 hPa | 0 mm | - | - | - |
| 1777532723 | 15.56° C | 76% | 1007.9 hPa | 0 mm | - | - | - |
| 1777532183 | 15.56° C | 76% | 1007.9 hPa | 0 mm | - | - | - |
| 1777531642 | 15.56° C | 77% | 1007.8 hPa | 0 mm | - | - | - |
| 1777531103 | 15.56° C | 77% | 1007.7 hPa | 0 mm | - | - | - |
| 1777530563 | 15° C | 77% | 1007.7 hPa | 0 mm | - | - | - |
| 1777530023 | 15° C | 77% | 1007.6 hPa | 0 mm | - | - | - |
| 1777529483 | 15° C | 78% | 1007.5 hPa | 0 mm | - | - | - |
| 1777528942 | 15° C | 78% | 1007.4 hPa | 0 mm | - | - | - |
| 1777528403 | 15° C | 78% | 1007.6 hPa | 0 mm | - | - | - |
| 1777527862 | 15° C | 79% | 1007.3 hPa | 0 mm | - | - | - |
| 1777527323 | 15° C | 79% | 1007.1 hPa | 0 mm | - | - | - |
| 1777526783 | 15° C | 80% | 1007.3 hPa | 0 mm | - | - | - |
* Rain latest hour (hover to see other rain measurements)
** Current wind speed in m/s (hover to see current wind gust speed)